FW2075 Weather Reports


time (UTC)temp
F
wind
direction
speed
knots
gust
knots
rain 1hr
in
rain 24hr
in
rain mn
in
humidity
%
barometer
mb
20260504081529 37 222 18.2 35.6 0.00 0.53 0.09 92 981.0
20260504050107 39 200 10.4 25.2 0.02 0.48 0.05 93 974.9
20260504044601 38 204 8.7 18.2 0.02 0.48 0.05 92 974.5
20260504043055 38 177 7.8 13.9 0.02 0.48 0.05 92 974.1
20260504041555 38 186 7.0 16.5 0.02 0.47 0.04 92 974.0
20260504040052 39 147 7.8 15.6 0.03 0.46 0.03 92 974.2
20260504034546 39 173 7.8 19.1 0.04 0.46 0.03 92 974.8
20260504033042 38 137 7.8 22.6 0.03 0.46 0.02 92 975.6
20260504031544 38 134 8.7 16.5 0.02 0.45 0.02 92 976.4
20260504030035 38 99 9.6 16.5 0.01 0.43 0.00 92 977.2
20260504024531 39 144 9.6 15.6 0.00 0.43 0.43 92 978.1
20260504023030 39 114 7.0 18.2 0.00 0.43 0.43 92 978.9
20260504021527 40 139 8.7 18.2 0.00 0.43 0.43 92 979.7
20260504020024 40 156 5.2 14.8 0.01 0.43 0.43 92 980.5
20260504014520 41 147 7.8 13.9 0.01 0.43 0.43 92 981.7
20260504013021 41 124 6.1 15.6 0.02 0.43 0.43 92 982.5
20260504011514 42 153 7.8 15.6 0.02 0.43 0.43 92 983.2
20260504010011 41 169 6.1 15.6 0.02 0.42 0.42 92 983.8
20260504004511 41 90 6.1 20.0 0.02 0.42 0.42 92 983.9
20260504003010 40 112 7.8 22.6 0.02 0.41 0.41 92 984.3
20260504001508 40 105 8.7 24.3 0.02 0.40 0.40 92 984.7
20260504000021 40 85 11.3 26.9 0.04 0.40 0.40 92 984.6
20260503234505 40 134 11.3 29.5 0.06 0.39 0.39 91 985.1
20260503233007 40 95 15.6 29.5 0.07 0.39 0.39 92 986.5
20260503231501 40 66 17.4 33.9 0.13 0.39 0.39 92 986.4
20260503230058 39 101 11.3 27.8 0.13 0.37 0.37 92 987.7
20260503224556 38 69 12.2 33.9 0.13 0.34 0.34 91 989.0
20260503223053 38 128 10.4 22.6 0.14 0.32 0.32 91 989.7
20260503221554 38 99 10.4 23.5 0.09 0.26 0.26 91 991.5
20260503220046 38 107 5.2 19.1 0.08 0.24 0.24 91 992.9
20260503214545 38 85 7.8 20.9 0.09 0.20 0.20 91 993.8
20260503213044 38 111 5.2 15.6 0.10 0.18 0.18 91 993.7
20260503211539 38 47 7.0 18.2 0.10 0.17 0.17 91 994.8
20260503210036 38 95 4.3 15.6 0.11 0.16 0.16 90 995.7
20260503204535 38 85 8.7 17.4 0.08 0.11 0.11 90 995.5
20260503203041 39 85 7.0 21.7 0.06 0.08 0.08 90 997.1
20260503201535 39 85 7.0 20.0 0.03 0.06 0.06 90 996.9
20260503200029 40 59 6.1 16.5 0.04 0.05 0.05 90 997.7
20260503194527 40 112 8.7 21.7 0.02 0.03 0.03 89 998.8
20260503193026 42 76 6.1 13.0 0.02 0.02 0.02 89 999.4
20260503191523 42 14 2.6 13.9 0.02 0.02 0.02 89 1000.4
20260503190021 43 77 3.5 13.0 0.00 0.01 0.01 88 1000.9
20260503184522 43 90 5.2 13.9 0.01 0.01 0.01 88 1001.1
20260503183015 43 90 5.2 13.9 0.01 0.01 0.01 88 1002.7
20260503181516 43 55 6.1 13.0 0.01 0.01 0.01 87 1003.6
20260503180021 43 45 6.1 12.2 0.01 0.01 0.01 84 1004.6
20260503174513 44 32 5.2 9.6 0.00 0.00 0.00 82 1005.4
20260503173010 44 30 5.2 12.2 0.00 0.00 0.00 80 1005.8
20260503171603 45 55 3.5 9.6 0.00 0.00 0.00 80 1007.5